Akron, CO

6:09 PM MST on December 07, 2019 (GMT -0700)
Akron-Washington County

Weather History for KAKO - November, 2019

Change the Weather History Date:

Thursday, November 21, 2019

  Actual Average Record
Temperature  
Mean Temperature 28 °F 35 °F  
Max Temperature 29 °F 47 °F 70 °F (1974)
Min Temperature 26 °F 23 °F 1 °F (1953)
Degree Days  
Heating Degree Days 37    
Month to date heating degree days 529  
Cooling Degree Days 0    
Month to date cooling degree days 0  
Moisture  
Dew Point 25 °F    
Average Humidity 92    
Maximum Humidity 100    
Minimum Humidity 84    
Precipitation  
Precipitation 0.01 in 0.02 in 0.74 in (1979)
Month to date precipitation 0.10 0.42  
Year to date precipitation 15.38 16.18  
Snow  
Snow 0.00 in - - ()
Snow Depth 0.00 in    
Sea Level Pressure  
Sea Level Pressure 30.13 in    
Wind  
Wind Speed 10 mph (NNE)    
Max Wind Speed 22 mph    
Max Gust Speed 28 mph    
Visibility 8 miles    
Events Snow    
T = Trace of Precipitation, MM = Missing Value Source: NWS Daily Summary

Daily Weather History Graph

Daily Weather History Graph

Search for Another Location

Airport or City:

Astronomy

Nov. 21, 2019 Rise Set
Actual Time 6:45 AM MST 4:31 PM MST
Civil Twilight 6:15 AM MST 5:01 PM MST
Nautical Twilight 5:42 AM MST 5:34 PM MST
Astronomical Twilight 5:10 AM MST 6:06 PM MST
Moon 12:43 AM MST (11/21) 2:02 PM MST (11/21)
Length of Visible Light 10h 45m
Length of Day
9h 46m
Waning Crescent, 29% of the Moon is Illuminated
Nov 21
Waning Crescent
Nov 26
New
Dec 3
First Quarter
Dec 11
Full
Dec 18
Last Quarter

Hourly Weather History & Observations

Time (MST) Temp. Windchill Dew Point Humidity Pressure Visibility Wind Dir Wind Speed Gust Speed Precip Events Conditions
12:03 AM 28.9 °F 17.3 °F 27.0 °F 92% 29.97 in 10.0 mi North 16.1 mph - N/A   Overcast
12:13 AM 28.9 °F 16.1 °F 27.0 °F 92% 29.97 in 10.0 mi North 19.6 mph - N/A   Overcast
12:53 AM 28.9 °F 17.3 °F 26.1 °F 89% 30.04 in 10.0 mi North 16.1 mph - N/A   Overcast
1:06 AM 28.9 °F 17.7 °F 26.1 °F 89% 30.03 in 10.0 mi NNW 15.0 mph - N/A   Overcast
1:15 AM 28.0 °F 17.5 °F 26.1 °F 92% 30.03 in 10.0 mi NNW 12.7 mph - N/A   Overcast
1:53 AM 28.0 °F 19.3 °F 25.0 °F 88% 30.08 in 10.0 mi NNW 9.2 mph - N/A   Overcast
3:16 AM 28.0 °F 17.5 °F 25.0 °F 88% 30.06 in 10.0 mi North 12.7 mph - N/A   Overcast
3:34 AM 28.0 °F 18.1 °F 25.0 °F 88% 30.05 in 10.0 mi North 11.5 mph - N/A   Overcast
3:53 AM 28.0 °F 18.6 °F 25.0 °F 88% 30.11 in 10.0 mi North 10.4 mph - N/A   Overcast
4:00 AM 28.0 °F 19.3 °F 25.0 °F 88% 30.06 in 10.0 mi North 9.2 mph - N/A   Overcast
4:32 AM 27.0 °F 16.7 °F 24.1 °F 89% 30.06 in 10.0 mi North 11.5 mph - N/A   Overcast
4:53 AM 27.0 °F 18.0 °F 24.1 °F 89% 30.13 in 10.0 mi North 9.2 mph - N/A   Overcast
5:53 AM 27.0 °F 18.0 °F 23.0 °F 85% 30.15 in 10.0 mi North 9.2 mph - N/A   Overcast
6:15 AM 26.1 °F 15.6 °F 23.0 °F 88% 30.07 in 10.0 mi North 11.5 mph - N/A   Overcast
6:53 AM 26.1 °F 15.6 °F 24.1 °F 92% 30.19 in 10.0 mi North 11.5 mph - N/A   Overcast
7:53 AM 27.0 °F 18.0 °F 24.1 °F 89% 30.19 in 10.0 mi NNE 9.2 mph - N/A   Overcast
8:50 AM 26.6 °F 22.6 °F 24.8 °F 93% 30.14 in 6.0 mi North 3.5 mph - N/A   Overcast
8:53 AM 27.0 °F 20.5 °F 25.0 °F 92% 30.22 in 5.0 mi North 5.8 mph - N/A   Overcast
9:53 AM 27.0 °F - 26.1 °F 96% 30.23 in 10.0 mi Calm Calm - N/A   Overcast
10:19 AM 27.0 °F 23.0 °F 25.0 °F 92% 30.14 in 10.0 mi NW 3.5 mph - N/A   Overcast
10:35 AM 27.0 °F - 25.0 °F 92% 30.14 in 10.0 mi Calm Calm - N/A   Overcast
10:53 AM 28.0 °F - 26.1 °F 92% 30.22 in 10.0 mi Calm Calm - N/A   Overcast
11:53 AM 28.9 °F 22.8 °F 26.1 °F 89% 30.20 in 10.0 mi North 5.8 mph - N/A   Overcast
12:16 PM 28.9 °F 22.8 °F 26.1 °F 89% 30.10 in 10.0 mi North 5.8 mph - N/A   Overcast
12:27 PM 28.9 °F 21.9 °F 26.1 °F 89% 30.10 in 10.0 mi North 6.9 mph - N/A   Overcast
12:38 PM 28.9 °F 22.8 °F 26.1 °F 89% 30.10 in 10.0 mi NNW 5.8 mph - N/A   Overcast
12:53 PM 28.9 °F 22.8 °F 26.1 °F 89% 30.19 in 10.0 mi North 5.8 mph - N/A   Overcast
1:40 PM 28.9 °F 22.8 °F 26.1 °F 89% 30.10 in 1.8 mi NE 5.8 mph - 0.00 in Snow Light Snow
1:48 PM 28.4 °F 19.7 °F 26.6 °F 93% 30.10 in 1.0 mi NNE 9.2 mph - 0.01 in Snow Light Snow
1:49 PM 28.9 °F 20.4 °F 26.1 °F 89% 30.19 in 1.0 mi NNE 9.2 mph - 0.01 in Snow Light Snow
2:00 PM 28.9 °F 21.9 °F 26.1 °F 89% 30.10 in 1.2 mi NE 6.9 mph - 0.00 in Snow Light Snow
2:06 PM 28.9 °F 21.1 °F 26.1 °F 89% 30.11 in 2.0 mi NE 8.1 mph - 0.00 in Snow Light Snow
2:37 PM 28.9 °F 22.8 °F 26.1 °F 89% 30.11 in 1.8 mi NE 5.8 mph - 0.00 in Snow Light Snow
2:45 PM 28.9 °F 22.8 °F 26.1 °F 89% 30.10 in 2.0 mi NNE 5.8 mph - 0.00 in Snow Light Snow
2:53 PM 28.9 °F 22.8 °F 26.1 °F 89% 30.19 in 1.5 mi NNE 5.8 mph - 0.00 in Snow Light Snow
3:03 PM 28.9 °F 23.9 °F 26.1 °F 89% 30.11 in 1.2 mi NNE 4.6 mph - 0.00 in Snow Light Snow
3:13 PM 28.9 °F 21.1 °F 26.1 °F 89% 30.11 in 1.5 mi NE 8.1 mph - 0.00 in Snow Light Snow
3:18 PM 28.9 °F 22.8 °F 26.1 °F 89% 30.11 in 2.0 mi NE 5.8 mph - 0.00 in Snow Light Snow
3:25 PM 28.9 °F 22.8 °F 26.1 °F 89% 30.11 in 2.5 mi NE 5.8 mph - 0.00 in Snow Light Snow
3:53 PM 28.9 °F 22.8 °F 26.1 °F 89% 30.20 in 4.0 mi NE 5.8 mph - 0.00 in Snow Light Snow
4:53 PM 28.0 °F 20.8 °F 26.1 °F 92% 30.22 in 8.0 mi NE 6.9 mph - 0.00 in Snow Light Snow
6:07 PM 28.0 °F 20.8 °F 25.0 °F 88% 30.13 in 10.0 mi East 6.9 mph - 0.00 in   Overcast
6:53 PM 27.0 °F 18.7 °F 24.1 °F 89% 30.23 in 10.0 mi ENE 8.1 mph - 0.00 in   Overcast
7:53 PM 27.0 °F 20.5 °F 24.1 °F 89% 30.25 in 10.0 mi East 5.8 mph - N/A   Overcast
8:53 PM 27.0 °F 21.6 °F 23.0 °F 85% 30.26 in 10.0 mi SSE 4.6 mph - N/A   Overcast
9:53 PM 27.0 °F 21.6 °F 23.0 °F 85% 30.25 in 10.0 mi East 4.6 mph - N/A   Overcast
10:53 PM 27.0 °F 20.5 °F 23.0 °F 85% 30.25 in 10.0 mi ESE 5.8 mph - N/A   Overcast
11:53 PM 26.1 °F 18.4 °F 21.9 °F 84% 30.24 in 10.0 mi ESE 6.9 mph - N/A   Overcast